Previsão horária em Barra de Santiago

Hoje, 20 Outubro, Terça-feira

Tempo Temperatura Precipitação Vento Pressão Humidade
00:00 +27°C° 0.5 mm 2 m/s 757 mmHg 84%
01:00 +27°C° 0.4 mm 2 m/s 757 mmHg 84%
02:00 +27°C° 0.4 mm 2 m/s 756 mmHg 84%
03:00 +26°C° 0.4 mm 2 m/s 756 mmHg 83%
04:00 +26°C° 0.1 mm 2 m/s 756 mmHg 83%
05:00 +26°C° 0.1 mm 2 m/s 756 mmHg 83%
06:00 +26°C° 0.1 mm 2 m/s 756 mmHg 83%
07:00 +28°C° 0 mm 2 m/s 757 mmHg 78%
08:00 +30°C° 0 mm 2 m/s 757 mmHg 73%
09:00 +32°C° 0 mm 2 m/s 757 mmHg 69%
10:00 +32°C° 0.1 mm 2 m/s 757 mmHg 70%
11:00 +33°C° 0.1 mm 3 m/s 756 mmHg 71%
12:00 +34°C° 0.1 mm 3 m/s 756 mmHg 72%
13:00 +33°C° 0.5 mm 3 m/s 755 mmHg 76%
14:00 +31°C° 0.5 mm 3 m/s 755 mmHg 80%
15:00 +30°C° 0.5 mm 3 m/s 754 mmHg 84%
16:00 +30°C° 0.3 mm 2 m/s 754 mmHg 86%
17:00 +29°C° 0.3 mm 1 m/s 755 mmHg 88%
18:00 +26°C° 0.3 mm 0 m/s 755 mmHg 91%
19:00 +28°C° 0.2 mm 1 m/s 756 mmHg 91%
20:00 +27°C° 0.2 mm 1 m/s 756 mmHg 91%
21:00 +27°C° 0.2 mm 1 m/s 757 mmHg 91%
22:00 +27°C° 1 mm 1 m/s 757 mmHg 91%
23:00 +27°C° 1 mm 1 m/s 757 mmHg 91%

Amanhã, 21 Outubro, Quarta-feira

Tempo Temperatura Precipitação Vento Pressão Humidade
00:00 +27°C° 1 mm 1 m/s 757 mmHg 91%
01:00 +27°C° 1.1 mm 2 m/s 757 mmHg 90%
02:00 +27°C° 1.1 mm 2 m/s 756 mmHg 89%
03:00 +27°C° 1.1 mm 2 m/s 756 mmHg 89%
04:00 +27°C° 0.3 mm 2 m/s 756 mmHg 88%
05:00 +26°C° 0.3 mm 2 m/s 757 mmHg 88%
06:00 +26°C° 0.3 mm 1 m/s 757 mmHg 88%
07:00 +28°C° 0 mm 1 m/s 757 mmHg 82%
08:00 +30°C° 0 mm 2 m/s 758 mmHg 76%
09:00 +31°C° 0 mm 2 m/s 758 mmHg 70%
10:00 +32°C° 0 mm 2 m/s 758 mmHg 70%
11:00 +32°C° 0 mm 2 m/s 757 mmHg 71%
12:00 +33°C° 0 mm 3 m/s 757 mmHg 71%
13:00 +33°C° 0.1 mm 3 m/s 756 mmHg 73%
14:00 +32°C° 0.1 mm 2 m/s 756 mmHg 76%
15:00 +31°C° 0.1 mm 2 m/s 755 mmHg 78%
16:00 +30°C° 0.1 mm 2 m/s 756 mmHg 81%
17:00 +29°C° 0.1 mm 1 m/s 756 mmHg 84%
18:00 +26°C° 0.1 mm 0 m/s 756 mmHg 87%
19:00 +28°C° 0.1 mm 1 m/s 757 mmHg 89%
20:00 +28°C° 0.1 mm 1 m/s 757 mmHg 90%
21:00 +27°C° 0.1 mm 1 m/s 758 mmHg 91%
22:00 +27°C° 0.3 mm 1 m/s 758 mmHg 91%
23:00 +27°C° 0.3 mm 1 m/s 758 mmHg 90%

Depois de amanhã, 22 Outubro, Quinta-feira

Tempo Temperatura Precipitação Vento Pressão Humidade
00:00 +27°C° 0.3 mm 1 m/s 757 mmHg 90%
01:00 +27°C° 0.2 mm 1 m/s 757 mmHg 90%
02:00 +27°C° 0.2 mm 2 m/s 757 mmHg 89%
03:00 +26°C° 0.2 mm 2 m/s 757 mmHg 89%
04:00 +26°C° 0.4 mm 2 m/s 757 mmHg 88%
05:00 +26°C° 0.4 mm 2 m/s 757 mmHg 87%
06:00 +26°C° 0.4 mm 2 m/s 757 mmHg 87%
07:00 +28°C° 0.2 mm 1 m/s 758 mmHg 81%
08:00 +30°C° 0.2 mm 1 m/s 758 mmHg 76%
09:00 +31°C° 0.2 mm 1 m/s 759 mmHg 70%
10:00 +32°C° 0.1 mm 1 m/s 758 mmHg 71%
11:00 +32°C° 0.1 mm 1 m/s 758 mmHg 73%
12:00 +32°C° 0.1 mm 2 m/s 757 mmHg 74%
13:00 +32°C° 0.3 mm 2 m/s 757 mmHg 76%
14:00 +31°C° 0.3 mm 2 m/s 756 mmHg 78%
15:00 +31°C° 0.3 mm 1 m/s 756 mmHg 80%
16:00 +30°C° 0 mm 1 m/s 756 mmHg 83%
17:00 +29°C° 0 mm 1 m/s 757 mmHg 85%
18:00 +26°C° 0 mm 0 m/s 757 mmHg 88%
19:00 +28°C° 0.2 mm 1 m/s 758 mmHg 89%
20:00 +28°C° 0.2 mm 1 m/s 758 mmHg 90%
21:00 +27°C° 0.2 mm 1 m/s 759 mmHg 90%
22:00 +27°C° 0.3 mm 1 m/s 758 mmHg 90%
23:00 +27°C° 0.3 mm 1 m/s 758 mmHg 89%

23 Outubro, Sexta-feira

Tempo Temperatura Precipitação Vento Pressão Humidade
00:00 +28°C° 0.3 mm 1 m/s 758 mmHg 88%
01:00 +27°C° 0.9 mm 1 m/s 758 mmHg 89%
02:00 +27°C° 0.9 mm 2 m/s 758 mmHg 89%
03:00 +27°C° 0.9 mm 2 m/s 757 mmHg 90%
04:00 +27°C° 0.7 mm 2 m/s 757 mmHg 90%
05:00 +27°C° 0.7 mm 1 m/s 758 mmHg 89%
06:00 +27°C° 0.7 mm 1 m/s 758 mmHg 89%
07:00 +28°C° 0 mm 1 m/s 758 mmHg 87%
08:00 +29°C° 0 mm 1 m/s 759 mmHg 85%
09:00 +30°C° 0 mm 1 m/s 759 mmHg 83%
10:00 +30°C° 0.3 mm 1 m/s 758 mmHg 81%
11:00 +31°C° 0.3 mm 1 m/s 758 mmHg 79%
12:00 +32°C° 0.3 mm 1 m/s 757 mmHg 77%
13:00 +31°C° 0.5 mm 2 m/s 757 mmHg 81%
14:00 +30°C° 0.5 mm 2 m/s 756 mmHg 85%
15:00 +29°C° 0.5 mm 2 m/s 755 mmHg 89%
16:00 +29°C° 0.2 mm 2 m/s 756 mmHg 90%
17:00 +28°C° 0.2 mm 2 m/s 756 mmHg 92%
18:00 +28°C° 0.2 mm 2 m/s 757 mmHg 94%
19:00 +28°C° 0.1 mm 2 m/s 757 mmHg 93%
20:00 +27°C° 0.1 mm 2 m/s 758 mmHg 93%
21:00 +27°C° 0.1 mm 2 m/s 759 mmHg 93%
22:00 +27°C° 0.1 mm 2 m/s 758 mmHg 92%
23:00 +27°C° 0.1 mm 2 m/s 758 mmHg 91%

24 Outubro, Sábado

Tempo Temperatura Precipitação Vento Pressão Humidade
00:00 +27°C° 0.1 mm 2 m/s 758 mmHg 91%
01:00 +26°C° 0.4 mm 2 m/s 758 mmHg 90%
02:00 +26°C° 0.4 mm 2 m/s 757 mmHg 90%
03:00 +26°C° 0.4 mm 3 m/s 757 mmHg 90%
04:00 +26°C° 0.4 mm 3 m/s 757 mmHg 90%
05:00 +26°C° 0.4 mm 3 m/s 758 mmHg 89%
06:00 +26°C° 0.4 mm 3 m/s 758 mmHg 89%
07:00 +28°C° 0 mm 2 m/s 758 mmHg 83%
08:00 +29°C° 0 mm 2 m/s 759 mmHg 77%
09:00 +31°C° 0 mm 1 m/s 759 mmHg 71%
10:00 +32°C° 0.2 mm 1 m/s 758 mmHg 72%
11:00 +32°C° 0.2 mm 2 m/s 758 mmHg 73%
12:00 +32°C° 0.2 mm 2 m/s 757 mmHg 74%
13:00 +31°C° 0.4 mm 2 m/s 756 mmHg 77%
14:00 +31°C° 0.4 mm 2 m/s 756 mmHg 81%
15:00 +30°C° 0.4 mm 2 m/s 755 mmHg 84%
16:00 +29°C° 0.2 mm 2 m/s 756 mmHg 86%
17:00 +29°C° 0.2 mm 2 m/s 756 mmHg 88%
18:00 +28°C° 0.2 mm 2 m/s 756 mmHg 90%
19:00 +28°C° 0.4 mm 2 m/s 757 mmHg 92%
20:00 +27°C° 0.4 mm 2 m/s 757 mmHg 93%
21:00 +27°C° 0.4 mm 3 m/s 758 mmHg 95%
22:00 +27°C° 0.3 mm 2 m/s 758 mmHg 94%
23:00 +27°C° 0.3 mm 2 m/s 757 mmHg 94%

25 Outubro, Domingo

Tempo Temperatura Precipitação Vento Pressão Humidade
00:00 +27°C° 0.3 mm 2 m/s 757 mmHg 93%
01:00 +27°C° 0.6 mm 1 m/s 757 mmHg 93%
02:00 +26°C° 0.6 mm 1 m/s 757 mmHg 93%
03:00 +26°C° 0.6 mm 1 m/s 757 mmHg 92%
04:00 +26°C° 1.1 mm 1 m/s 757 mmHg 92%
05:00 +26°C° 1.1 mm 1 m/s 757 mmHg 92%
06:00 +27°C° 1.1 mm 2 m/s 758 mmHg 91%
07:00 +27°C° 0.2 mm 1 m/s 758 mmHg 89%
08:00 +28°C° 0.2 mm 1 m/s 758 mmHg 86%
09:00 +29°C° 0.2 mm 1 m/s 758 mmHg 84%
10:00 +30°C° 0.2 mm 1 m/s 758 mmHg 85%
11:00 +30°C° 0.2 mm 1 m/s 757 mmHg 85%
12:00 +30°C° 0.2 mm 2 m/s 757 mmHg 86%
13:00 +30°C° 0.4 mm 2 m/s 756 mmHg 88%
14:00 +30°C° 0.4 mm 2 m/s 756 mmHg 89%
15:00 +29°C° 0.4 mm 2 m/s 755 mmHg 90%
16:00 +29°C° 0.3 mm 2 m/s 755 mmHg 92%
17:00 +28°C° 0.3 mm 1 m/s 756 mmHg 93%
18:00 +28°C° 0.3 mm 1 m/s 756 mmHg 94%
19:00 +28°C° 3.5 mm 1 m/s 757 mmHg 95%
20:00 +27°C° 3.5 mm 1 m/s 757 mmHg 96%
21:00 +27°C° 3.5 mm 2 m/s 758 mmHg 96%
22:00 +27°C° 2.7 mm 2 m/s 758 mmHg 96%
23:00 +27°C° 2.7 mm 2 m/s 757 mmHg 95%

26 Outubro, Segunda-feira

Tempo Temperatura Precipitação Vento Pressão Humidade
00:00 +27°C° 2.7 mm 3 m/s 757 mmHg 94%
01:00 +27°C° 0.8 mm 3 m/s 757 mmHg 93%
02:00 +27°C° 0.8 mm 2 m/s 756 mmHg 92%
03:00 +27°C° 0.8 mm 2 m/s 756 mmHg 91%
04:00 +26°C° 0.4 mm 2 m/s 756 mmHg 90%
05:00 +26°C° 0.4 mm 2 m/s 756 mmHg 90%
06:00 +26°C° 0.4 mm 2 m/s 757 mmHg 89%
07:00 +28°C° 0.4 mm 1 m/s 757 mmHg 84%
08:00 +30°C° 0.4 mm 1 m/s 757 mmHg 79%
09:00 +31°C° 0.4 mm 1 m/s 758 mmHg 74%
10:00 +31°C° 1.2 mm 1 m/s 757 mmHg 78%
11:00 +31°C° 1.2 mm 2 m/s 757 mmHg 82%
12:00 +31°C° 1.2 mm 3 m/s 756 mmHg 85%
13:00 +30°C° 0.8 mm 3 m/s 756 mmHg 87%
14:00 +30°C° 0.8 mm 3 m/s 755 mmHg 89%
15:00 +29°C° 0.8 mm 2 m/s 755 mmHg 91%
16:00 +28°C° 0.8 mm 2 m/s 755 mmHg 91%
17:00 +28°C° 0.8 mm 2 m/s 756 mmHg 92%
18:00 +27°C° 0.8 mm 1 m/s 756 mmHg 92%
19:00 +27°C° 1.6 mm 1 m/s 756 mmHg 92%
20:00 +27°C° 1.6 mm 2 m/s 757 mmHg 92%
21:00 +27°C° 1.6 mm 2 m/s 757 mmHg 91%
22:00 +27°C° 1.6 mm 2 m/s 757 mmHg 91%
23:00 +27°C° 1.6 mm 2 m/s 757 mmHg 91%
Mostrar mais